CW3999 Weather Reports


Display with metric or nautical units.
time (UTC)temp
F
wind
direction
speed
MPH
gust
MPH
rain 1hr
in
rain 24hr
in
rain mn
in
humidity
%
barometer
mb
20260510182903 64 305 5.0 10.0 0.00 0.00 0.00 55 1017.9
20260510182404 64 305 4.0 9.0 0.00 0.00 0.00 55 1017.8
20260510181403 64 305 5.0 14.0 0.00 0.00 0.00 55 1017.8
20260510180904 64 305 5.0 14.0 0.00 0.00 0.00 54 1017.8
20260510180403 63 304 5.0 10.0 0.00 0.00 0.00 55 1017.7
20260510175902 63 304 5.0 10.0 0.00 0.00 0.00 54 1017.7
20260510175400 63 304 5.0 10.0 0.00 0.00 0.00 54 1017.7
20260510174903 63 304 6.0 10.0 0.00 0.00 0.00 53 1017.8
20260510174401 62 304 4.0 10.0 0.00 0.00 0.00 54 1017.7
20260510173902 62 304 4.0 10.0 0.00 0.00 0.00 55 1017.6
20260510173402 62 304 6.0 10.0 0.00 0.00 0.00 55 1017.7
20260510172901 62 304 6.0 12.0 0.00 0.00 0.00 55 1017.8
20260510172402 62 304 7.0 15.0 0.00 0.00 0.00 53 1017.8
20260510171901 62 302 8.0 15.0 0.00 0.00 0.00 53 1017.8
20260510171402 61 294 8.0 14.0 0.00 0.00 0.00 53 1017.8
20260510170901 61 288 7.0 13.0 0.00 0.00 0.00 53 1017.4
20260510170402 61 288 6.0 13.0 0.00 0.00 0.00 53 1017.4
20260510165902 61 281 5.0 11.0 0.00 0.00 0.00 51 1017.4
20260510165359 61 281 5.0 11.0 0.00 0.00 0.00 50 1017.4
20260510164855 61 280 5.0 10.0 0.00 0.00 0.00 52 1017.3
20260510163845 60 279 6.0 10.0 0.00 0.00 0.00 49 1017.3
20260510163345 60 278 6.0 9.0 0.00 0.00 0.00 52 1017.4
20260510162349 60 278 6.0 10.0 0.00 0.00 0.00 47 1017.3
20260510161848 60 278 7.0 11.0 0.00 0.00 0.00 48 1017.4
20260510161344 60 278 6.0 11.0 0.00 0.00 0.00 41 1017.4
20260510160835 59 277 5.0 10.0 0.00 0.00 0.00 41 1017.3
20260510160335 59 277 3.0 9.0 0.00 0.00 0.00 32 1017.3
20260510155335 58 277 2.0 7.0 0.00 0.00 0.00 21 1017.1
20260510154835 58 277 3.0 7.0 0.00 0.00 0.00 16 1017.1
20260510154335 57 277 4.0 9.0 0.00 0.00 0.00 18 1017.2
20260510153331 57 277 6.0 10.0 0.00 0.00 0.00 13 1017.3
20260510152830 57 277 6.0 9.0 0.00 0.00 0.00 13 1017.1
20260510152330 56 277 4.0 9.0 0.00 0.00 0.00 8 1016.9
20260510151830 56 276 2.0 9.0 0.00 0.00 0.00 5 1016.9
20260510151330 56 276 0.0 0.0 0.00 0.00 0.00 100 1016.9
20260510150831 56 276 0.0 0.0 0.00 0.00 0.00 100 1016.8
20260510150333 55 276 0.0 0.0 0.00 0.00 0.00 100 1016.8
20260510145830 55 277 0.0 0.0 0.00 0.00 0.00 100 1017.0
20260510145330 55 277 0.0 0.0 0.00 0.00 0.00 100 1016.8
20260510144831 55 277 0.0 0.0 0.00 0.00 0.00 100 1016.8
20260510144330 54 277 0.0 0.0 0.00 0.00 0.00 100 1016.8
20260510143830 54 277 0.0 0.0 0.00 0.00 0.00 100 1016.7
20260510143332 54 277 0.0 0.0 0.00 0.00 0.00 100 1016.7
20260510142823 54 277 0.0 0.0 0.00 0.00 0.00 100 1016.8
20260510142324 53 277 0.0 0.0 0.00 0.00 0.00 100 1016.9
20260510141811 53 277 0.0 0.0 0.00 0.00 0.00 100 1016.6
20260510141304 53 277 0.0 0.0 0.00 0.00 0.00 100 1016.6
20260510140804 53 277 0.0 0.0 0.00 0.00 0.00 100 1016.4
20260510140303 53 277 0.0 0.0 0.00 0.00 0.00 100 1016.4
20260510135803 53 277 0.0 0.0 0.00 0.00 0.00 100 1016.3
20260510135306 53 277 0.0 0.0 0.00 0.00 0.00 100 1016.2
20260510134804 53 277 0.0 0.0 0.00 0.00 0.00 100 1016.3
20260510134304 53 277 0.0 0.0 0.00 0.00 0.00 100 1016.2
20260510133803 53 277 0.0 0.0 0.00 0.00 0.00 100 1016.2
20260510132801 54 277 0.0 0.0 0.00 0.00 0.00 2 1016.1
20260510132306 54 277 0.0 0.0 0.00 0.00 0.00 4 1016.1
20260510131803 54 277 0.0 0.0 0.00 0.00 0.00 4 1015.8
20260510131302 54 277 0.0 0.0 0.00 0.00 0.00 4 1015.8
20260510130802 54 277 0.0 0.0 0.00 0.00 0.00 4 1015.9
20260510130302 54 277 0.0 0.0 0.00 0.00 0.00 5 1015.9
20260510125804 54 277 0.0 0.0 0.00 0.00 0.00 4 1015.8
20260510125306 54 277 0.0 0.0 0.00 0.00 0.00 2 1015.7
20260510124803 54 277 0.0 0.0 0.00 0.00 0.00 1 1015.8
20260510124303 54 277 0.0 0.0 0.00 0.00 0.00 100 1015.9
20260510123801 54 277 0.0 0.0 0.00 0.00 0.00 100 1016.0
20260510123302 54 277 0.0 0.0 0.00 0.00 0.00 100 1016.2
20260510122802 54 277 0.0 0.0 0.00 0.00 0.00 100 1015.9
20260510122306 54 277 1.0 7.0 0.00 0.00 0.00 100 1015.9
20260510121804 54 277 2.0 7.0 0.00 0.00 0.00 100 1015.8
20260510121304 54 277 3.0 7.0 0.00 0.00 0.00 100 1015.8
20260510120802 54 277 4.0 9.0 0.00 0.00 0.00 100 1015.8
20260510120301 54 277 4.0 9.0 0.00 0.00 0.00 100 1015.9
20260510115803 54 277 6.0 12.0 0.00 0.00 0.00 100 1015.8
20260510115305 54 277 7.0 12.0 0.00 0.00 0.00 100 1015.8
20260510114801 55 273 6.0 11.0 0.00 0.00 0.00 100 1015.8
20260510114302 55 271 4.0 9.0 0.00 0.00 0.00 100 1015.8
20260510113803 55 271 3.0 8.0 0.00 0.00 0.00 100 1015.8
20260510113301 55 271 4.0 9.0 0.00 0.00 0.00 100 1015.7
20260510112800 55 271 4.0 9.0 0.00 0.00 0.00 100 1015.5
20260510112305 55 271 3.0 8.0 0.00 0.00 0.00 100 1015.5
20260510111802 55 271 4.0 8.0 0.00 0.00 0.00 100 1015.6
20260510111303 55 271 5.0 8.0 0.00 0.00 0.00 100 1015.7
20260510110801 55 271 6.0 10.0 0.00 0.00 0.00 100 1015.6
20260510110301 55 271 5.0 10.0 0.00 0.00 0.00 100 1015.6
20260510105802 55 271 4.0 8.0 0.00 0.00 0.00 100 1015.4
20260510105306 55 271 5.0 11.0 0.00 0.00 0.00 100 1015.3
20260510103301 56 271 6.0 13.0 0.00 0.00 0.00 100 1015.1
20260510102803 56 271 6.0 13.0 0.00 0.00 0.00 100 1015.0
20260510102301 56 267 6.0 12.0 0.00 0.00 0.00 100 1014.9
20260510101800 56 267 7.0 12.0 0.00 0.00 0.00 100 1015.0
20260510101305 56 267 7.0 11.0 0.00 0.00 0.00 100 1014.9
20260510100802 56 265 7.0 11.0 0.00 0.00 0.00 100 1014.9
20260510095802 56 265 4.0 9.0 0.00 0.00 0.00 100 1014.6
20260510095305 57 265 5.0 9.0 0.00 0.00 0.00 100 1014.5
20260510094803 57 265 5.0 9.0 0.00 0.00 0.00 100 1014.4
20260510094303 57 265 3.0 9.0 0.00 0.00 0.00 100 1014.2
20260510093803 57 265 3.0 9.0 0.00 0.00 0.00 100 1014.1
20260510093303 57 265 4.0 9.0 0.00 0.00 0.00 100 1014.2
20260510092804 57 265 3.0 8.0 0.00 0.00 0.00 100 1014.4
20260510092306 58 265 3.0 7.0 0.00 0.00 0.00 100 1014.5
20260510091302 57 265 1.0 8.0 0.00 0.00 0.00 100 1014.5
20260510090804 57 265 0.0 0.0 0.00 0.00 0.00 100 1014.4
20260510090303 57 265 0.0 0.0 0.00 0.00 0.00 100 1014.4
20260510084802 57 265 0.0 0.0 0.00 0.00 0.00 100 1014.4
20260510084302 57 265 0.0 0.0 0.00 0.00 0.00 100 1014.3
20260510083804 57 265 0.0 0.0 0.00 0.00 0.00 100 1014.3
20260510083303 56 265 0.0 0.0 0.00 0.00 0.00 100 1014.3
20260510082803 56 265 0.0 0.0 0.00 0.00 0.00 100 1014.2
20260510082306 56 265 0.0 0.0 0.00 0.00 0.00 1 1014.1
20260510081808 56 265 0.0 0.0 0.00 0.00 0.00 3 1014.1
20260510081304 56 265 0.0 0.0 0.00 0.00 0.00 4 1014.1
20260510080803 57 265 0.0 0.0 0.00 0.00 0.00 6 1014.1
20260510075802 57 265 0.0 0.0 0.00 0.00 0.00 6 1014.1
20260510074802 57 265 0.0 0.0 0.00 0.00 0.00 13 1014.0
20260510073812 58 265 0.0 0.0 0.00 0.00 0.00 23 1013.9
20260510072803 59 265 0.0 0.0 0.00 0.00 0.00 34 1013.9
20260510072305 59 265 0.0 0.0 0.00 0.00 0.00 38 1013.9
20260510071801 60 265 0.0 0.0 0.00 0.00 0.00 41 1014.0
20260510071302 60 265 0.0 0.0 0.00 0.00 0.00 42 1014.0
20260510070802 60 265 0.0 0.0 0.00 0.00 0.00 45 1014.0
20260510070302 60 265 0.0 0.0 0.00 0.00 0.00 46 1014.0
20260510065306 61 265 0.0 0.0 0.00 0.00 0.00 51 1014.0
20260510064802 61 265 0.0 0.0 0.00 0.00 0.00 51 1014.0
20260510064301 61 265 0.0 0.0 0.00 0.00 0.00 51 1014.0
20260510063803 62 265 0.0 0.0 0.00 0.00 0.00 52 1013.9
20260510063303 62 265 0.0 0.0 0.00 0.00 0.00 53 1013.9
20260510062803 62 265 0.0 0.0 0.00 0.00 0.00 53 1013.9
20260510062307 62 265 0.0 0.0 0.00 0.00 0.00 54 1013.8
20260510061801 63 265 0.0 0.0 0.00 0.00 0.00 55 1013.8
20260510061303 63 265 0.0 0.0 0.00 0.00 0.00 56 1013.8
20260510060804 64 265 0.0 0.0 0.00 0.00 0.00 56 1013.8
20260510055801 65 265 0.0 0.0 0.00 0.00 0.00 56 1013.7
20260510055306 65 265 0.0 0.0 0.00 0.00 0.00 56 1013.8
20260510054804 65 265 0.0 0.0 0.00 0.00 0.00 56 1013.7
20260510053302 66 265 0.0 0.0 0.00 0.00 0.00 56 1013.7
20260510052306 66 265 0.0 0.0 0.00 0.00 0.00 55 1013.5
20260510051804 66 265 0.0 0.0 0.00 0.00 0.00 55 1013.5
20260510051303 66 265 0.0 0.0 0.00 0.00 0.00 55 1013.5
20260510050802 67 265 0.0 0.0 0.00 0.00 0.00 55 1013.5
20260510045802 67 265 0.0 0.0 0.00 0.00 0.00 54 1013.5
20260510045306 67 265 0.0 0.0 0.00 0.00 0.00 54 1013.5
20260510044804 67 265 0.0 0.0 0.00 0.00 0.00 54 1013.5
20260510044304 67 265 0.0 0.0 0.00 0.00 0.00 54 1013.6
20260510043804 67 265 0.0 0.0 0.00 0.00 0.00 54 1013.6
20260510042801 67 265 0.0 0.0 0.00 0.00 0.00 54 1013.5
20260510042305 67 265 0.0 0.0 0.00 0.00 0.00 53 1013.4
20260510041802 68 265 0.0 0.0 0.00 0.00 0.00 53 1013.4
20260510041302 68 265 0.0 0.0 0.00 0.00 0.00 52 1013.3
20260510040802 69 265 0.0 0.0 0.00 0.00 0.00 52 1013.2
20260510040303 69 265 0.0 0.0 0.00 0.00 0.00 51 1013.1
20260510035803 69 265 0.0 0.0 0.00 0.00 0.00 51 1013.0
20260510035306 69 265 0.0 0.0 0.00 0.00 0.00 49 1012.9
20260510034303 70 265 0.0 0.0 0.00 0.00 0.00 47 1012.9
20260510033804 70 265 0.0 0.0 0.00 0.00 0.00 50 1012.8
20260510033243 71 265 0.0 0.0 0.00 0.00 0.00 50 1012.8
20260510032737 71 265 0.0 0.0 0.00 0.00 0.00 49 1012.8
20260510032230 71 265 0.0 0.0 0.00 0.00 0.00 49 1012.8
20260510031731 71 265 0.0 0.0 0.00 0.00 0.00 47 1012.7
20260510031222 71 265 0.0 0.0 0.00 0.00 0.00 47 1012.7
20260510030723 72 265 0.0 0.0 0.00 0.00 0.00 47 1012.7
20260510030219 72 265 0.0 0.0 0.00 0.00 0.00 47 1012.7
20260510025717 72 265 0.0 0.0 0.00 0.00 0.00 46 1012.7
20260510025219 72 265 0.0 4.0 0.00 0.00 0.00 45 1012.6
20260510024719 72 265 0.0 4.0 0.00 0.00 0.00 45 1012.5
20260510024217 73 265 0.0 0.0 0.00 0.00 0.00 45 1012.6
20260510023720 73 265 0.0 0.0 0.00 0.00 0.00 46 1012.6
20260510023219 73 265 0.0 3.0 0.00 0.00 0.00 46 1012.5
20260510022218 73 265 4.0 9.0 0.00 0.00 0.00 46 1012.6
20260510021718 74 265 4.0 9.0 0.00 0.00 0.00 45 1012.6
20260510021219 74 265 3.0 9.0 0.00 0.00 0.00 45 1012.6
20260510020218 74 265 3.0 8.0 0.00 0.00 0.00 46 1012.6
20260510015718 75 265 4.0 8.0 0.00 0.00 0.00 45 1012.5
20260510015218 75 265 3.0 8.0 0.00 0.00 0.00 46 1012.6
20260510014718 75 265 1.0 7.0 0.00 0.00 0.00 46 1012.6
20260510014215 75 265 1.0 6.0 0.00 0.00 0.00 46 1012.6
20260510013709 75 265 3.0 7.0 0.00 0.00 0.00 45 1012.7
20260510013211 76 265 4.0 8.0 0.00 0.00 0.00 45 1012.8
20260510012707 76 265 2.0 8.0 0.00 0.00 0.00 44 1012.7
20260510012207 76 265 2.0 9.0 0.00 0.00 0.00 44 1012.7
20260510011201 77 265 3.0 9.0 0.00 0.00 0.00 46 1012.7
20260510010703 77 265 3.0 8.0 0.00 0.00 0.00 42 1012.8
20260510010202 77 265 4.0 8.0 0.00 0.00 0.00 44 1012.8
20260510005701 77 265 4.0 8.0 0.00 0.00 0.00 43 1012.9
20260510005202 77 265 3.0 7.0 0.00 0.00 0.00 44 1012.9
20260510004703 78 265 3.0 7.0 0.00 0.00 0.00 45 1013.0
20260510004204 78 265 1.0 7.0 0.00 0.00 0.00 44 1012.9
20260510003202 78 265 1.0 4.0 0.00 0.00 0.00 41 1013.0
20260510002701 78 265 2.0 6.0 0.00 0.00 0.00 40 1013.0
20260510002202 78 265 2.0 7.0 0.00 0.00 0.00 40 1013.0
20260510001702 78 265 1.0 7.0 0.00 0.00 0.00 39 1013.0
20260510001202 78 265 0.0 0.0 0.00 0.00 0.00 36 1013.0
20260510000204 78 265 1.0 7.0 0.00 0.00 0.00 33 1013.1
20260509235703 79 265 1.0 7.0 0.00 0.00 0.00 33 1013.2
20260509235203 79 265 0.0 0.0 0.00 0.00 0.00 31 1013.2
20260509234702 79 265 0.0 0.0 0.00 0.00 0.00 29 1013.2
20260509233703 80 265 0.0 0.0 0.00 0.00 0.00 36 1013.3
20260509232702 80 265 0.0 0.0 0.00 0.00 0.00 39 1013.4
20260509232203 80 265 0.0 0.0 0.00 0.00 0.00 35 1013.4
20260509231702 80 265 0.0 0.0 0.00 0.00 0.00 38 1013.5
20260509231202 80 265 0.0 4.0 0.00 0.00 0.00 37 1013.7
20260509230202 79 265 1.0 7.0 0.00 0.00 0.00 35 1013.8
20260509225703 78 265 2.0 8.0 0.00 0.00 0.00 37 1013.9
20260509224701 78 265 0.0 0.0 0.00 0.00 0.00 38 1014.1
20260509224202 78 265 0.0 0.0 0.00 0.00 0.00 38 1014.1
20260509222635 77 265 3.0 8.0 0.00 0.00 0.00 40 1014.5
20260509222135 77 265 3.0 8.0 0.00 0.00 0.00 39 1014.6
20260509221635 77 265 2.0 8.0 0.00 0.00 0.00 41 1014.7
20260509221135 77 265 2.0 10.0 0.00 0.00 0.00 40 1014.9
20260509220630 77 265 4.0 10.0 0.00 0.00 0.00 42 1015.0
20260509220131 77 265 2.0 10.0 0.00 0.00 0.00 41 1015.1
20260509215631 76 265 1.0 8.0 0.00 0.00 0.00 45 1015.2
20260509214623 76 265 2.0 9.0 0.00 0.00 0.00 45 1015.2
20260509214122 75 265 4.0 9.0 0.00 0.00 0.00 46 1015.3
20260509213622 75 265 3.0 9.0 0.00 0.00 0.00 46 1015.4
20260509213122 75 265 2.0 10.0 0.00 0.00 0.00 46 1015.4
20260509212622 75 265 4.0 11.0 0.00 0.00 0.00 45 1015.4
20260509212123 75 265 4.0 11.0 0.00 0.00 0.00 47 1015.5
20260509211623 75 263 3.0 9.0 0.00 0.00 0.00 48 1015.6
20260509211122 75 263 2.0 8.0 0.00 0.00 0.00 50 1015.6
20260509210123 74 263 3.0 10.0 0.00 0.00 0.00 48 1015.9
20260509205119 73 263 3.0 11.0 0.00 0.00 0.00 52 1015.8
20260509204618 73 263 4.0 11.0 0.00 0.00 0.00 52 1015.8
20260509204117 73 261 4.0 11.0 0.00 0.00 0.00 52 1015.9
20260509203618 73 261 3.0 9.0 0.00 0.00 0.00 51 1015.9
20260509203118 72 261 3.0 10.0 0.00 0.00 0.00 51 1016.0
20260509202119 72 261 2.0 9.0 0.00 0.00 0.00 53 1016.2
20260509201119 72 259 3.0 10.0 0.00 0.00 0.00 51 1016.4
20260509200117 72 258 4.0 10.0 0.00 0.00 0.00 53 1016.4
20260509195618 72 257 3.0 9.0 0.00 0.00 0.00 51 1016.6
20260509195119 72 257 2.0 9.0 0.00 0.00 0.00 52 1016.8
20260509193619 70 257 2.0 10.0 0.00 0.00 0.00 53 1017.0
20260509193123 69 257 1.0 10.0 0.00 0.00 0.00 53 1016.9
20260509192618 69 254 2.0 8.0 0.00 0.00 0.00 52 1017.1
20260509190618 68 254 3.0 9.0 0.00 0.00 0.00 54 1017.3
20260509190118 68 254 2.0 9.0 0.00 0.00 0.00 54 1017.4
20260509185118 68 252 3.0 9.0 0.00 0.00 0.00 53 1017.5
20260509184619 67 252 4.0 9.0 0.00 0.00 0.00 54 1017.6
20260509184118 67 250 3.0 8.0 0.00 0.00 0.00 54 1017.7
20260509183618 67 250 2.0 8.0 0.00 0.00 0.00 53 1017.8
20260509183118 67 249 0.0 7.0 0.00 0.00 0.00 54 1017.8